Time,TemperatureF,DewpointF,PressureIn,WindDirection,WindDirectionDegrees,WindSpeedMPH,WindSpeedGustMPH,Humidity,HourlyPrecipIn,Conditions,Clouds,dailyrainin,SoftwareType,DateUTC
2013-01-07 00:10:00,27.0,-15.6,-100.00,WSW,246,0.0,0.0,14,99.99,n/a,n/a,-99.99,Henriksen +1-Wire,2013-01-07 05:10:00,
2013-01-07 00:20:00,27.0,-6.0,-100.00,WSW,246,0.0,0.0,23,99.99,n/a,n/a,-99.99,Henriksen +1-Wire,2013-01-07 05:20:00,
2013-01-07 00:30:00,26.0,-3.9,-100.00,WSW,246,0.0,0.0,26,99.99,n/a,n/a,-99.99,Henriksen +1-Wire,2013-01-07 05:30:00,
2013-01-07 00:40:00,25.6,-3.6,-100.00,WSW,247,0.0,0.0,27,99.99,n/a,n/a,-99.99,Henriksen +1-Wire,2013-01-07 05:40:00,
2013-01-07 00:50:00,25.6,-2.3,-100.00,WSW,247,0.0,0.0,29,99.99,n/a,n/a,-99.99,Henriksen +1-Wire,2013-01-07 05:50:00,
2013-01-07 01:00:00,25.2,-1.7,-100.00,WSW,247,0.0,0.0,30,99.99,n/a,n/a,-99.99,Henriksen +1-Wire,2013-01-07 06:00:00,
2013-01-07 01:10:00,25.4,-1.8,-100.00,WSW,253,0.0,0.0,30,99.99,n/a,n/a,-99.99,Henriksen +1-Wire,2013-01-07 06:10:00,
2013-01-07 01:20:00,25.8,-2.4,-100.00,SSW,201,0.0,0.0,29,99.99,n/a,n/a,-99.99,Henriksen +1-Wire,2013-01-07 06:20:00,
2013-01-07 01:30:00,25.9,-2.8,-100.00,SSE,156,0.0,0.0,28,99.99,n/a,n/a,-99.99,Henriksen +1-Wire,2013-01-07 06:30:00,
2013-01-07 01:40:00,26.4,-2.5,-100.00,SSE,156,0.0,0.0,28,99.99,n/a,n/a,-99.99,Henriksen +1-Wire,2013-01-07 06:40:00,
2013-01-07 01:50:00,27.2,-4.3,-100.00,WNW,289,0.2,5.2,25,99.99,n/a,n/a,-99.99,Henriksen +1-Wire,2013-01-07 06:50:00,
2013-01-07 02:00:00,27.6,-7.8,-100.00,WNW,293,0.1,5.2,20,99.99,n/a,n/a,-99.99,Henriksen +1-Wire,2013-01-07 07:00:00,
2013-01-07 02:10:00,28.8,1.0,-100.00,WNW,292,0.1,5.2,30,99.99,n/a,n/a,-99.99,Henriksen +1-Wire,2013-01-07 07:10:00,
2013-01-07 02:20:00,30.6,6.0,-100.00,WNW,290,0.1,5.2,34,99.99,n/a,n/a,-99.99,Henriksen +1-Wire,2013-01-07 07:20:00,
2013-01-07 02:30:00,30.6,6.9,-100.00,WNW,292,0.0,0.0,36,99.99,n/a,n/a,-99.99,Henriksen +1-Wire,2013-01-07 07:30:00,
2013-01-07 02:40:00,29.9,7.0,-100.00,WNW,292,1.5,4.2,37,99.99,n/a,n/a,-99.99,Henriksen +1-Wire,2013-01-07 07:40:00,
2013-01-07 02:50:00,30.0,6.5,-100.00,NW,306,0.0,3.1,36,99.99,n/a,n/a,-99.99,Henriksen +1-Wire,2013-01-07 07:50:00,
2013-01-07 03:00:00,30.5,7.5,-100.00,NW,308,0.2,4.2,37,99.99,n/a,n/a,-99.99,Henriksen +1-Wire,2013-01-07 08:00:00,
2013-01-07 03:10:00,29.1,6.5,-100.00,WNW,293,0.0,3.1,38,99.99,n/a,n/a,-99.99,Henriksen +1-Wire,2013-01-07 08:10:00,
2013-01-07 03:20:00,28.3,5.8,-100.00,WNW,292,0.0,0.0,38,99.99,n/a,n/a,-99.99,Henriksen +1-Wire,2013-01-07 08:20:00,
2013-01-07 03:30:00,27.5,4.7,-100.00,WNW,292,0.0,0.0,37,99.99,n/a,n/a,-99.99,Henriksen +1-Wire,2013-01-07 08:30:00,
2013-01-07 03:40:00,27.1,3.6,-100.00,WNW,292,0.0,0.0,36,99.99,n/a,n/a,-99.99,Henriksen +1-Wire,2013-01-07 08:40:00,
2013-01-07 03:50:00,26.7,4.1,-100.00,WNW,292,0.0,0.0,37,99.99,n/a,n/a,-99.99,Henriksen +1-Wire,2013-01-07 08:50:00,
2013-01-07 04:00:00,27.0,3.9,-100.00,WNW,292,0.0,1.0,36,99.99,n/a,n/a,-99.99,Henriksen +1-Wire,2013-01-07 09:00:00,
2013-01-07 04:10:00,26.9,3.9,-100.00,WNW,292,0.0,0.0,37,99.99,n/a,n/a,-99.99,Henriksen +1-Wire,2013-01-07 09:10:00,
2013-01-07 04:20:00,26.6,3.6,-100.00,WNW,292,0.0,0.0,37,99.99,n/a,n/a,-99.99,Henriksen +1-Wire,2013-01-07 09:20:00,
2013-01-07 04:30:00,26.0,3.1,-100.00,WNW,292,0.0,0.0,37,99.99,n/a,n/a,-99.99,Henriksen +1-Wire,2013-01-07 09:30:00,
2013-01-07 04:40:00,25.8,3.2,-100.00,WNW,292,0.0,0.0,37,99.99,n/a,n/a,-99.99,Henriksen +1-Wire,2013-01-07 09:40:00,
2013-01-07 04:50:00,26.0,3.1,-100.00,WNW,292,0.2,1.1,37,99.99,n/a,n/a,-99.99,Henriksen +1-Wire,2013-01-07 09:50:00,
2013-01-07 05:00:00,26.3,3.4,-100.00,WNW,285,0.8,3.1,37,99.99,n/a,n/a,-99.99,Henriksen +1-Wire,2013-01-07 10:00:00,
2013-01-07 05:10:00,26.8,3.7,-100.00,WSW,247,0.0,0.0,36,99.99,n/a,n/a,-99.99,Henriksen +1-Wire,2013-01-07 10:10:00,
2013-01-07 05:20:00,27.4,4.2,-100.00,WSW,247,1.2,3.1,36,99.99,n/a,n/a,-99.99,Henriksen +1-Wire,2013-01-07 10:20:00,
2013-01-07 05:30:00,28.2,5.1,-100.00,WSW,246,0.0,3.1,37,99.99,n/a,n/a,-99.99,Henriksen +1-Wire,2013-01-07 10:30:00,
2013-01-07 05:40:00,28.6,5.7,-100.00,West,260,1.4,6.2,37,99.99,n/a,n/a,-99.99,Henriksen +1-Wire,2013-01-07 10:40:00,
2013-01-07 05:50:00,28.2,5.9,-100.00,WSW,252,0.0,0.0,38,99.99,n/a,n/a,-99.99,Henriksen +1-Wire,2013-01-07 10:50:00,
2013-01-07 06:00:00,27.1,4.8,-100.00,NE,45,0.0,0.0,38,99.99,n/a,n/a,-99.99,Henriksen +1-Wire,2013-01-07 11:00:00,
2013-01-07 06:10:00,26.8,4.7,-100.00,NE,45,0.0,0.0,38,99.99,n/a,n/a,-99.99,Henriksen +1-Wire,2013-01-07 11:10:00,
2013-01-07 06:20:00,26.4,4.3,-100.00,NE,45,0.0,0.0,38,99.99,n/a,n/a,-99.99,Henriksen +1-Wire,2013-01-07 11:20:00,
2013-01-07 06:30:00,25.9,3.6,-100.00,NE,45,0.0,0.0,37,99.99,n/a,n/a,-99.99,Henriksen +1-Wire,2013-01-07 11:30:00,
2013-01-07 06:40:00,25.5,2.8,-100.00,NE,45,0.2,2.1,37,99.99,n/a,n/a,-99.99,Henriksen +1-Wire,2013-01-07 11:40:00,
2013-01-07 06:50:00,25.6,2.8,-100.00,WSW,246,0.0,2.1,37,99.99,n/a,n/a,-99.99,Henriksen +1-Wire,2013-01-07 11:50:00,
2013-01-07 07:00:00,26.0,4.3,-100.00,WSW,247,0.0,0.0,39,99.99,n/a,n/a,-99.99,Henriksen +1-Wire,2013-01-07 12:00:00,
2013-01-07 07:10:00,25.1,3.2,-100.00,WSW,247,0.0,0.0,38,99.99,n/a,n/a,-99.99,Henriksen +1-Wire,2013-01-07 12:10:00,
2013-01-07 07:20:00,25.4,3.1,-100.00,WSW,247,0.2,2.1,38,99.99,n/a,n/a,-99.99,Henriksen +1-Wire,2013-01-07 12:20:00,
2013-01-07 07:30:00,26.1,4.5,-100.00,WSW,247,1.5,4.2,39,99.99,n/a,n/a,-99.99,Henriksen +1-Wire,2013-01-07 12:30:00,
2013-01-07 07:40:00,28.4,6.9,-100.00,West,261,0.0,6.2,39,99.99,n/a,n/a,-99.99,Henriksen +1-Wire,2013-01-07 12:40:00,
2013-01-07 07:50:00,28.6,7.5,-100.00,WSW,249,0.1,2.1,40,99.99,n/a,n/a,-99.99,Henriksen +1-Wire,2013-01-07 12:50:00,
2013-01-07 08:00:00,27.9,6.7,-100.00,SW,226,0.0,0.0,40,99.99,n/a,n/a,-99.99,Henriksen +1-Wire,2013-01-07 13:00:00,
2013-01-07 08:10:00,28.1,6.9,-100.00,SW,217,1.9,4.2,40,99.99,n/a,n/a,-99.99,Henriksen +1-Wire,2013-01-07 13:10:00,
2013-01-07 08:20:00,28.2,8.1,-100.00,ESE,114,0.0,1.0,42,99.99,n/a,n/a,-99.99,Henriksen +1-Wire,2013-01-07 13:20:00,
2013-01-07 08:30:00,28.6,8.1,-100.00,ESE,115,0.0,0.0,41,99.99,n/a,n/a,-99.99,Henriksen +1-Wire,2013-01-07 13:30:00,
2013-01-07 08:40:00,28.9,7.8,-100.00,ESE,112,0.3,4.2,40,99.99,n/a,n/a,-99.99,Henriksen +1-Wire,2013-01-07 13:40:00,
2013-01-07 08:50:00,30.1,9.5,-100.00,NNW,337,0.0,1.0,41,99.99,n/a,n/a,-99.99,Henriksen +1-Wire,2013-01-07 13:50:00,
2013-01-07 09:00:00,30.6,10.3,-100.00,NNW,328,0.3,4.2,42,99.99,n/a,n/a,-99.99,Henriksen +1-Wire,2013-01-07 14:00:00,
2013-01-07 09:10:00,31.0,10.0,-100.00,NNE,13,0.0,1.0,41,99.99,n/a,n/a,-99.99,Henriksen +1-Wire,2013-01-07 14:10:00,
2013-01-07 09:20:00,31.2,9.7,-100.00,NNW,342,3.4,6.2,40,99.99,n/a,n/a,-99.99,Henriksen +1-Wire,2013-01-07 14:20:00,
2013-01-07 09:30:00,31.7,10.0,-100.00,NW,323,0.2,5.2,40,99.99,n/a,n/a,-99.99,Henriksen +1-Wire,2013-01-07 14:30:00,
2013-01-07 09:40:00,31.8,9.0,-100.00,NW,308,0.5,5.3,38,99.99,n/a,n/a,-99.99,Henriksen +1-Wire,2013-01-07 14:40:00,
2013-01-07 09:50:00,31.6,8.5,-100.00,WNW,296,0.6,6.3,37,99.99,n/a,n/a,-99.99,Henriksen +1-Wire,2013-01-07 14:50:00,
2013-01-07 10:00:00,31.6,8.3,-100.00,WNW,290,0.1,5.2,37,99.99,n/a,n/a,-99.99,Henriksen +1-Wire,2013-01-07 15:00:00,
2013-01-07 10:10:00,31.9,8.3,-100.00,NNE,22,0.2,3.2,36,99.99,n/a,n/a,-99.99,Henriksen +1-Wire,2013-01-07 15:10:00,
2013-01-07 10:20:00,32.5,8.0,-100.00,NNW,348,2.0,6.2,35,99.99,n/a,n/a,-99.99,Henriksen +1-Wire,2013-01-07 15:20:00,
2013-01-07 10:30:00,31.4,6.4,-100.00,WNW,286,4.1,9.3,34,99.99,n/a,n/a,-99.99,Henriksen +1-Wire,2013-01-07 15:30:00,
2013-01-07 10:40:00,31.6,6.1,-100.00,NW,309,2.2,4.2,33,99.99,n/a,n/a,-99.99,Henriksen +1-Wire,2013-01-07 15:40:00,
2013-01-07 10:50:00,33.3,5.1,-100.00,WNW,284,1.1,5.2,30,99.99,n/a,n/a,-99.99,Henriksen +1-Wire,2013-01-07 15:50:00,
2013-01-07 11:00:00,33.4,5.1,-100.00,North,7,1.6,5.3,29,99.99,n/a,n/a,-99.99,Henriksen +1-Wire,2013-01-07 16:00:00,
2013-01-07 11:10:00,34.6,5.7,-100.00,NNE,16,0.2,3.2,29,99.99,n/a,n/a,-99.99,Henriksen +1-Wire,2013-01-07 16:10:00,
2013-01-07 11:20:00,35.1,4.5,-100.00,NNW,334,2.2,8.4,27,99.99,n/a,n/a,-99.99,Henriksen +1-Wire,2013-01-07 16:20:00,
2013-01-07 11:30:00,33.4,1.9,-100.00,North,7,1.7,6.2,26,99.99,n/a,n/a,-99.99,Henriksen +1-Wire,2013-01-07 16:30:00,
2013-01-07 11:40:00,33.1,2.2,-100.00,NW,309,1.5,5.2,26,99.99,n/a,n/a,-99.99,Henriksen +1-Wire,2013-01-07 16:40:00,
2013-01-07 11:50:00,32.9,2.2,-100.00,NNW,334,1.9,5.2,26,99.99,n/a,n/a,-99.99,Henriksen +1-Wire,2013-01-07 16:50:00,
2013-01-07 12:00:00,32.9,2.6,-100.00,NW,312,0.1,4.2,27,99.99,n/a,n/a,-99.99,Henriksen +1-Wire,2013-01-07 17:00:00,
2013-01-07 12:10:00,31.8,3.4,-100.00,WNW,291,0.8,5.3,29,99.99,n/a,n/a,-99.99,Henriksen +1-Wire,2013-01-07 17:10:00,
2013-01-07 12:20:00,35.2,5.6,-100.00,NW,308,0.9,4.2,28,99.99,n/a,n/a,-99.99,Henriksen +1-Wire,2013-01-07 17:20:00,
2013-01-07 12:30:00,35.2,3.9,-100.00,WNW,294,3.5,6.3,26,99.99,n/a,n/a,-99.99,Henriksen +1-Wire,2013-01-07 17:30:00,
2013-01-07 12:40:00,33.5,1.8,-100.00,WNW,290,1.9,8.3,25,99.99,n/a,n/a,-99.99,Henriksen +1-Wire,2013-01-07 17:40:00,
2013-01-07 12:50:00,35.2,2.6,-100.00,West,281,2.2,5.3,25,99.99,n/a,n/a,-99.99,Henriksen +1-Wire,2013-01-07 17:50:00,
2013-01-07 13:00:00,35.9,2.6,-100.00,NW,310,1.9,5.1,24,99.99,n/a,n/a,-99.99,Henriksen +1-Wire,2013-01-07 18:00:00,
2013-01-07 13:10:00,34.8,-0.1,-100.00,NW,308,2.4,7.3,22,99.99,n/a,n/a,-99.99,Henriksen +1-Wire,2013-01-07 18:10:00,
2013-01-07 13:20:00,33.4,-1.4,-100.00,NW,307,0.6,6.3,22,99.99,n/a,n/a,-99.99,Henriksen +1-Wire,2013-01-07 18:20:00,
2013-01-07 13:30:00,34.1,0.4,-100.00,WNW,291,1.8,6.3,23,99.99,n/a,n/a,-99.99,Henriksen +1-Wire,2013-01-07 18:30:00,
2013-01-07 13:40:00,33.9,-0.2,-100.00,WNW,297,0.8,4.2,23,99.99,n/a,n/a,-99.99,Henriksen +1-Wire,2013-01-07 18:40:00,
2013-01-07 13:50:00,33.5,-0.7,-100.00,NE,40,1.5,4.2,22,99.99,n/a,n/a,-99.99,Henriksen +1-Wire,2013-01-07 18:50:00,
2013-01-07 14:00:00,33.1,-0.9,-100.00,ENE,59,0.1,4.2,23,99.99,n/a,n/a,-99.99,Henriksen +1-Wire,2013-01-07 19:00:00,
2013-01-07 14:10:00,33.0,-0.9,-100.00,NNW,336,0.2,4.2,23,99.99,n/a,n/a,-99.99,Henriksen +1-Wire,2013-01-07 19:10:00,
2013-01-07 14:20:00,32.2,-1.1,-100.00,NW,304,0.0,1.0,23,99.99,n/a,n/a,-99.99,Henriksen +1-Wire,2013-01-07 19:20:00,
2013-01-07 14:30:00,32.0,-1.2,-100.00,WNW,290,0.0,0.0,23,99.99,n/a,n/a,-99.99,Henriksen +1-Wire,2013-01-07 19:30:00,
2013-01-07 14:40:00,31.7,-1.6,-100.00,NNW,329,0.0,0.0,23,99.99,n/a,n/a,-99.99,Henriksen +1-Wire,2013-01-07 19:40:00,
2013-01-07 14:50:00,31.7,-1.7,-100.00,North,360,0.0,0.0,23,99.99,n/a,n/a,-99.99,Henriksen +1-Wire,2013-01-07 19:50:00,
2013-01-07 15:00:00,30.7,-0.2,-100.00,NNW,336,0.0,0.0,26,99.99,n/a,n/a,-99.99,Henriksen +1-Wire,2013-01-07 20:00:00,
2013-01-07 15:10:00,31.0,-1.1,-100.00,WNW,293,1.5,6.3,24,99.99,n/a,n/a,-99.99,Henriksen +1-Wire,2013-01-07 20:10:00,
2013-01-07 15:20:00,30.7,-1.0,-100.00,NE,45,0.0,0.0,25,99.99,n/a,n/a,-99.99,Henriksen +1-Wire,2013-01-07 20:20:00,
2013-01-07 15:30:00,30.1,-0.6,-100.00,WNW,292,1.8,3.1,26,99.99,n/a,n/a,-99.99,Henriksen +1-Wire,2013-01-07 20:30:00,
2013-01-07 15:40:00,30.0,-1.6,-100.00,WNW,286,2.2,6.3,25,99.99,n/a,n/a,-99.99,Henriksen +1-Wire,2013-01-07 20:40:00,
2013-01-07 15:50:00,29.3,-3.0,-100.00,SSW,202,0.0,2.1,24,99.99,n/a,n/a,-99.99,Henriksen +1-Wire,2013-01-07 20:50:00,
2013-01-07 16:00:00,28.3,-1.9,-100.00,SW,234,0.0,4.2,26,99.99,n/a,n/a,-99.99,Henriksen +1-Wire,2013-01-07 21:00:00,
2013-01-07 16:10:00,27.7,-1.4,-100.00,WSW,247,0.1,2.1,28,99.99,n/a,n/a,-99.99,Henriksen +1-Wire,2013-01-07 21:10:00,
2013-01-07 16:20:00,27.4,-1.4,-100.00,WSW,247,0.0,0.0,28,99.99,n/a,n/a,-99.99,Henriksen +1-Wire,2013-01-07 21:20:00,
2013-01-07 16:30:00,26.7,-2.0,-100.00,WSW,247,0.0,0.0,28,99.99,n/a,n/a,-99.99,Henriksen +1-Wire,2013-01-07 21:30:00,
2013-01-07 16:40:00,26.0,-2.0,-100.00,WSW,247,0.0,0.0,29,99.99,n/a,n/a,-99.99,Henriksen +1-Wire,2013-01-07 21:40:00,
2013-01-07 16:50:00,25.6,-1.5,-100.00,WSW,247,0.0,0.0,30,99.99,n/a,n/a,-99.99,Henriksen +1-Wire,2013-01-07 21:50:00,
2013-01-07 17:00:00,25.1,-1.7,-100.00,WSW,247,0.0,0.0,30,99.99,n/a,n/a,-99.99,Henriksen +1-Wire,2013-01-07 22:00:00,
2013-01-07 17:10:00,24.5,-1.5,-100.00,WSW,247,0.0,0.0,31,99.99,n/a,n/a,-99.99,Henriksen +1-Wire,2013-01-07 22:10:00,
2013-01-07 17:20:00,23.9,-1.0,-100.00,WSW,247,0.0,0.0,33,99.99,n/a,n/a,-99.99,Henriksen +1-Wire,2013-01-07 22:20:00,
2013-01-07 17:30:00,23.3,-0.5,-100.00,WSW,247,0.0,0.0,35,99.99,n/a,n/a,-99.99,Henriksen +1-Wire,2013-01-07 22:30:00,
2013-01-07 17:40:00,22.8,-1.1,-100.00,WSW,247,0.0,0.0,34,99.99,n/a,n/a,-99.99,Henriksen +1-Wire,2013-01-07 22:40:00,
2013-01-07 17:50:00,22.5,-1.6,-100.00,WSW,247,0.0,0.0,34,99.99,n/a,n/a,-99.99,Henriksen +1-Wire,2013-01-07 22:50:00,
2013-01-07 18:00:00,22.2,-1.5,-100.00,WSW,247,0.0,0.0,35,99.99,n/a,n/a,-99.99,Henriksen +1-Wire,2013-01-07 23:00:00,
2013-01-07 18:10:00,22.0,-2.0,-100.00,WSW,247,0.0,0.0,34,99.99,n/a,n/a,-99.99,Henriksen +1-Wire,2013-01-07 23:10:00,
2013-01-07 18:20:00,21.4,-3.0,-100.00,WSW,247,0.0,0.0,33,99.99,n/a,n/a,-99.99,Henriksen +1-Wire,2013-01-07 23:20:00,
2013-01-07 18:30:00,21.3,-2.7,-100.00,WSW,247,0.0,0.0,34,99.99,n/a,n/a,-99.99,Henriksen +1-Wire,2013-01-07 23:30:00,
2013-01-07 18:40:00,21.2,-1.4,-100.00,WSW,247,0.0,0.0,36,99.99,n/a,n/a,-99.99,Henriksen +1-Wire,2013-01-07 23:40:00,
2013-01-07 18:50:00,20.5,-1.4,-100.00,WSW,247,0.0,0.0,37,99.99,n/a,n/a,-99.99,Henriksen +1-Wire,2013-01-07 23:50:00,
2013-01-07 19:00:00,20.4,-1.4,-100.00,WSW,247,0.0,0.0,38,99.99,n/a,n/a,-99.99,Henriksen +1-Wire,2013-01-08 00:00:00,
2013-01-07 19:10:00,20.3,-1.4,-100.00,WSW,247,0.0,0.0,38,99.99,n/a,n/a,-99.99,Henriksen +1-Wire,2013-01-08 00:10:00,
2013-01-07 19:20:00,20.0,-1.4,-100.00,WSW,247,0.0,0.0,38,99.99,n/a,n/a,-99.99,Henriksen +1-Wire,2013-01-08 00:20:00,
2013-01-07 19:30:00,19.7,-1.6,-100.00,WSW,247,0.0,3.1,38,99.99,n/a,n/a,-99.99,Henriksen +1-Wire,2013-01-08 00:30:00,
2013-01-07 19:40:00,19.5,-2.3,-100.00,WSW,247,0.0,0.0,37,99.99,n/a,n/a,-99.99,Henriksen +1-Wire,2013-01-08 00:40:00,
2013-01-07 19:50:00,19.2,-2.2,-100.00,WSW,247,0.0,0.0,38,99.99,n/a,n/a,-99.99,Henriksen +1-Wire,2013-01-08 00:50:00,
2013-01-07 20:00:00,18.9,-1.9,-100.00,WSW,247,0.0,0.0,39,99.99,n/a,n/a,-99.99,Henriksen +1-Wire,2013-01-08 01:00:00,
2013-01-07 20:10:00,18.9,-1.8,-100.00,WSW,247,0.0,0.0,39,99.99,n/a,n/a,-99.99,Henriksen +1-Wire,2013-01-08 01:10:00,
2013-01-07 20:20:00,18.3,-2.2,-100.00,WSW,247,0.0,0.0,40,99.99,n/a,n/a,-99.99,Henriksen +1-Wire,2013-01-08 01:20:00,
2013-01-07 20:30:00,18.0,-2.2,-100.00,WSW,247,0.0,0.0,40,99.99,n/a,n/a,-99.99,Henriksen +1-Wire,2013-01-08 01:30:00,
2013-01-07 20:40:00,17.8,-2.8,-100.00,WSW,247,0.0,0.0,39,99.99,n/a,n/a,-99.99,Henriksen +1-Wire,2013-01-08 01:40:00,
2013-01-07 20:50:00,17.6,-4.0,-100.00,WSW,247,0.0,0.0,38,99.99,n/a,n/a,-99.99,Henriksen +1-Wire,2013-01-08 01:50:00,
2013-01-07 21:00:00,17.5,-4.3,-100.00,WSW,247,0.0,0.0,37,99.99,n/a,n/a,-99.99,Henriksen +1-Wire,2013-01-08 02:00:00,
2013-01-07 21:10:00,17.2,-4.0,-100.00,WSW,247,0.0,0.0,38,99.99,n/a,n/a,-99.99,Henriksen +1-Wire,2013-01-08 02:10:00,
2013-01-07 21:20:00,16.8,-4.2,-100.00,WSW,247,0.0,0.0,38,99.99,n/a,n/a,-99.99,Henriksen +1-Wire,2013-01-08 02:20:00,
2013-01-07 21:30:00,16.6,-3.9,-100.00,WSW,247,0.0,0.0,39,99.99,n/a,n/a,-99.99,Henriksen +1-Wire,2013-01-08 02:30:00,
2013-01-07 21:40:00,16.7,-3.8,-100.00,WSW,247,0.0,0.0,39,99.99,n/a,n/a,-99.99,Henriksen +1-Wire,2013-01-08 02:40:00,
2013-01-07 21:50:00,16.4,-4.4,-100.00,WSW,247,0.0,0.0,39,99.99,n/a,n/a,-99.99,Henriksen +1-Wire,2013-01-08 02:50:00,
2013-01-07 22:00:00,16.2,-4.4,-100.00,WSW,247,0.0,0.0,39,99.99,n/a,n/a,-99.99,Henriksen +1-Wire,2013-01-08 03:00:00,
2013-01-07 22:10:00,15.9,-4.2,-100.00,WSW,247,0.0,0.0,40,99.99,n/a,n/a,-99.99,Henriksen +1-Wire,2013-01-08 03:10:00,
2013-01-07 22:20:00,15.9,-4.0,-100.00,WSW,247,0.0,0.0,40,99.99,n/a,n/a,-99.99,Henriksen +1-Wire,2013-01-08 03:20:00,
2013-01-07 22:30:00,15.9,-4.7,-100.00,WSW,247,0.0,0.0,39,99.99,n/a,n/a,-99.99,Henriksen +1-Wire,2013-01-08 03:30:00,
2013-01-07 22:40:00,15.7,-4.1,-100.00,WSW,247,0.0,0.0,40,99.99,n/a,n/a,-99.99,Henriksen +1-Wire,2013-01-08 03:40:00,
2013-01-07 22:50:00,15.4,-4.5,-100.00,WSW,247,0.0,0.0,40,99.99,n/a,n/a,-99.99,Henriksen +1-Wire,2013-01-08 03:50:00,
2013-01-07 23:00:00,15.4,-4.9,-100.00,WSW,247,0.0,0.0,40,99.99,n/a,n/a,-99.99,Henriksen +1-Wire,2013-01-08 04:00:00,
2013-01-07 23:10:00,15.2,-4.7,-100.00,WSW,247,0.0,0.0,40,99.99,n/a,n/a,-99.99,Henriksen +1-Wire,2013-01-08 04:10:00,
2013-01-07 23:20:00,15.2,-4.6,-100.00,WSW,247,0.0,0.0,40,99.99,n/a,n/a,-99.99,Henriksen +1-Wire,2013-01-08 04:20:00,
2013-01-07 23:30:00,14.9,-5.8,-100.00,WSW,247,0.0,0.0,39,99.99,n/a,n/a,-99.99,Henriksen +1-Wire,2013-01-08 04:30:00,
2013-01-07 23:40:00,14.7,-6.1,-100.00,WSW,247,0.0,0.0,38,99.99,n/a,n/a,-99.99,Henriksen +1-Wire,2013-01-08 04:40:00,
2013-01-07 23:50:00,14.6,-5.2,-100.00,WSW,247,0.0,0.0,40,99.99,n/a,n/a,-99.99,Henriksen +1-Wire,2013-01-08 04:50:00,